DW7601 San Vito IT current weather conditions

sailwx.info

Wind from 338 at 6 knots gusting 12

Air temperature 22.8° C
Dewpoint 14.3° C

Last reported at 2014-Oct-21 23:41 UTC.
Time now 2014-Oct-22 00:12 UTC

Location: N 39°27' E 009°32'.
View on Google Maps.

See reports from other nearby stations

  
Tides and Currents Weather Stations Pressure Air Temp Water Temp Dewpoint Dewpoint Depression Visibility Wind Speed Wind Dir Waves Ship Positions
date/time (UTC)wind fromknots sea level pressurealtimeterstation pressurevisibilityair tempwater tempwave heightnotes
2014-Oct-21 23:41 338 6 gusting 12 22.8
2014-Oct-21 23:31 270 7 gusting 13 22.8
2014-Oct-21 23:21 338 5 gusting 10 22.8
2014-Oct-21 23:11 068 6 gusting 13 22.8
2014-Oct-21 23:01 338 8 gusting 20 22.8
2014-Oct-21 22:51 292 6 gusting 20 22.8
2014-Oct-21 22:41 068 7 gusting 14 23.3
2014-Oct-21 22:31 292 6 gusting 12 23.3
2014-Oct-21 22:21 23.3
2014-Oct-21 22:11 270 6 gusting 6 23.3
2014-Oct-21 22:01 338 6 gusting 12 23.3
2014-Oct-21 21:51 315 6 gusting 13 23.3
2014-Oct-21 21:41 022 6 gusting 13 23.3
2014-Oct-21 21:31 270 6 gusting 12 23.3
2014-Oct-21 21:21 022 7 gusting 12 23.3
2014-Oct-21 21:11 270 6 gusting 12 23.3
2014-Oct-21 21:01 022 5 gusting 13 23.3
2014-Oct-21 20:51 315 6 gusting 10 23.3
2014-Oct-21 20:41 338 6 gusting 13 23.3
2014-Oct-21 20:31 248 6 gusting 8 23.3
2014-Oct-21 20:21 338 5 gusting 10 23.3
2014-Oct-21 20:11 292 6 gusting 13 23.3
2014-Oct-21 20:01 292 6 gusting 12 23.3
2014-Oct-21 19:51 292 6 gusting 12 23.3
2014-Oct-21 19:41 292 6 gusting 10 23.3
2014-Oct-21 19:31 315 6 gusting 10 23.3
2014-Oct-21 19:21 248 6 gusting 12 23.9
2014-Oct-21 19:11 022 4 gusting 8 23.3
2014-Oct-21 19:01 274 4 gusting 6 23.9
2014-Oct-21 18:51 019 2 gusting 6 23.3
2014-Oct-21 18:41 23.9
2014-Oct-21 18:31 022 4 gusting 6 23.9
2014-Oct-21 18:21 112 5 gusting 11 23.9
2014-Oct-21 18:11 338 4 gusting 12 23.9
2014-Oct-21 18:01 315 4 gusting 7 23.9
2014-Oct-21 17:51 23.9
2014-Oct-21 17:41 338 1 gusting 5 24.4
2014-Oct-21 17:31 270 4 gusting 7 24.4
2014-Oct-21 17:21 022 5 gusting 7 24.4
2014-Oct-21 17:11 022 4 gusting 7 24.4
2014-Oct-21 17:01 338 4 gusting 4 25.0
2014-Oct-21 16:51 292 4 gusting 6 25.0
2014-Oct-21 16:41 292 2 gusting 6 25.6
2014-Oct-21 16:31 068 1 gusting 6 25.6
2014-Oct-21 16:21 292 2 gusting 5 26.1
2014-Oct-21 16:11 315 4 gusting 6 26.1
2014-Oct-21 16:01 338 2 gusting 8 26.7
2014-Oct-21 15:51 27.2
2014-Oct-21 15:41 225 2 gusting 6 27.8
2014-Oct-21 15:31 068 4 gusting 6 28.3
2014-Oct-21 15:21 248 4 gusting 7 28.9
2014-Oct-21 15:11 270 2 gusting 6 29.4
2014-Oct-21 15:01 225 4 gusting 6 29.4
2014-Oct-21 14:41 022 2 gusting 6 30.0
2014-Oct-21 14:31 248 4 gusting 6 30.0
2014-Oct-21 14:21 30.0
2014-Oct-21 14:11 292 5 gusting 11 30.0
2014-Oct-21 14:01 30.0
2014-Oct-21 13:41 338 5 gusting 10 30.6
2014-Oct-21 13:31 319 5 gusting 10 30.6
2014-Oct-21 13:21 290 4 gusting 8 30.6
2014-Oct-21 13:11 248 4 gusting 8 30.6
2014-Oct-21 13:01 270 6 gusting 10 30.0
2014-Oct-21 12:51 292 6 gusting 11 30.0
2014-Oct-21 12:41 338 5 gusting 6 30.6
2014-Oct-21 12:31 270 5 gusting 11 30.0
2014-Oct-21 12:21 292 4 gusting 7 30.0
2014-Oct-21 12:11 270 5 gusting 12 30.0
2014-Oct-21 12:01 338 6 gusting 13 30.0
2014-Oct-21 11:51 270 6 gusting 12 30.0
2014-Oct-21 11:41 248 6 gusting 13 30.0
2014-Oct-21 11:31 30.0
2014-Oct-21 11:21 338 7 gusting 11 30.0
2014-Oct-21 11:11 338 7 gusting 12 30.0
2014-Oct-21 11:01 338 6 gusting 12 29.4
2014-Oct-21 10:51 338 7 gusting 13 28.9
2014-Oct-21 10:41 28.9
2014-Oct-21 10:31 022 7 gusting 13 28.9
2014-Oct-21 10:21 270 6 gusting 12 28.9
2014-Oct-21 10:11 28.3
2014-Oct-21 10:01 022 6 gusting 12 28.3
2014-Oct-21 09:51 338 6 gusting 10 28.3
2014-Oct-21 09:41 338 6 gusting 11 27.8
2014-Oct-21 09:31 022 6 gusting 11 27.2
2014-Oct-21 09:21 022 6 gusting 13 26.7
2014-Oct-21 09:11 26.7
2014-Oct-21 09:01 022 6 gusting 13 26.1
2014-Oct-21 08:51 315 6 gusting 13 25.6
2014-Oct-21 08:41 25.0
2014-Oct-21 08:31 022 7 gusting 10 24.4
2014-Oct-21 08:21 248 6 gusting 8 24.4
2014-Oct-21 08:11 292 6 gusting 10 23.9
2014-Oct-21 08:01 022 6 gusting 10 23.9
2014-Oct-21 07:51 358 6 gusting 11 23.9
2014-Oct-21 07:41 022 5 gusting 8 23.3
2014-Oct-21 07:31 338 4 gusting 8 22.8
2014-Oct-21 07:21 292 5 gusting 7 22.8
2014-Oct-21 07:11 022 5 gusting 8 22.2
2014-Oct-21 07:01 022 5 gusting 7 21.7
2014-Oct-21 06:51 248 4 gusting 6 21.1
2014-Oct-21 06:41 20.6
2014-Oct-21 06:31 022 2 gusting 4 20.6
2014-Oct-21 06:21 338 1 gusting 6 20.6
2014-Oct-21 06:11 202 1 gusting 6 20.0
2014-Oct-21 06:01 355 1 gusting 6 19.4
2014-Oct-21 05:51 105 0 gusting 2 18.9
2014-Oct-21 05:41 065 1 gusting 4 18.9
2014-Oct-21 05:31 025 1 gusting 4 18.9
2014-Oct-21 05:21 020 1 gusting 2 18.9
2014-Oct-21 05:11 063 1 gusting 4 19.4
2014-Oct-21 05:01 045 2 gusting 6 19.4
2014-Oct-21 04:51 025 2 gusting 6 19.4
2014-Oct-21 04:41 025 4 gusting 5 19.4
2014-Oct-21 04:31 022 4 gusting 7 19.4
2014-Oct-21 04:21 022 2 gusting 5 19.4
2014-Oct-21 04:11 068 1 gusting 5 19.4
2014-Oct-21 04:01 025 1 gusting 6 19.4
2014-Oct-21 03:51 088 0 gusting 6 19.4
2014-Oct-21 03:41 094 0 gusting 2 19.4
2014-Oct-21 03:31 112 18.9
2014-Oct-21 03:21 270 1 gusting 5 18.9
2014-Oct-21 03:11 024 2 gusting 6 18.9
2014-Oct-21 03:01 021 4 gusting 6 18.9
2014-Oct-21 02:51 342 4 gusting 6 18.9
2014-Oct-21 02:41 021 4 gusting 6 18.9
2014-Oct-21 02:31 021 4 gusting 6 18.9
2014-Oct-21 02:21 296 4 gusting 7 18.9
2014-Oct-21 02:11 001 4 gusting 6 18.9
2014-Oct-21 02:01 155 4 gusting 6 18.9
2014-Oct-21 01:51 003 2 gusting 5 18.9
2014-Oct-21 01:41 020 2 gusting 6 18.9
2014-Oct-21 01:31 359 2 gusting 5 18.9
2014-Oct-21 01:21 023 4 gusting 5 19.4
2014-Oct-21 01:11 338 4 gusting 4 19.4
2014-Oct-21 01:01 085 4 gusting 6 19.4
2014-Oct-21 00:51 002 1 gusting 5 19.4
2014-Oct-21 00:41 022 2 gusting 6 19.4
2014-Oct-21 00:31 041 2 gusting 6 19.4
2014-Oct-21 00:21 20.0
2014-Oct-21 00:11 020 2 gusting 6 20.0
2014-Oct-21 00:01 002 2 gusting 6 20.0
2014-Oct-20 23:51 020 2 gusting 6 20.0
2014-Oct-20 23:41 020 1 gusting 4 20.0
2014-Oct-20 23:31 025 1 gusting 5 20.0
2014-Oct-20 23:21 20.0
2014-Oct-20 23:11 340 1 gusting 4 19.4
2014-Oct-20 23:01 19.4
2014-Oct-20 22:51 334 1 gusting 6 19.4
2014-Oct-20 22:41 358 18.3
2014-Oct-20 22:31 333 17.8
2014-Oct-20 22:21 289 17.8
2014-Oct-20 22:11 202 18.3
2014-Oct-20 22:01 223 18.3
2014-Oct-20 21:51 268 18.3
2014-Oct-20 21:41 137 18.3
2014-Oct-20 21:31 227 17.8
2014-Oct-20 21:21 225 18.3
2014-Oct-20 21:11 271 18.3
2014-Oct-20 21:01 246 18.3
2014-Oct-20 20:51 064 18.3
2014-Oct-20 20:41 227 18.9
2014-Oct-20 20:31 270 18.9
2014-Oct-20 20:21 223 18.9
2014-Oct-20 20:11 184 18.9
2014-Oct-20 20:01 107 19.4
2014-Oct-20 19:51 204 19.4
2014-Oct-20 19:41 204 19.4
2014-Oct-20 19:31 183 19.4
2014-Oct-20 19:21 114 20.0
2014-Oct-20 19:11 026 20.0
2014-Oct-20 19:01 197 20.0
2014-Oct-20 18:51 090 20.6
2014-Oct-20 18:41 135 20.6
2014-Oct-20 18:31 021 21.1
2014-Oct-20 18:21 022 21.1
2014-Oct-20 18:11 249 21.7
2014-Oct-20 18:01 225 21.7
2014-Oct-20 17:51 225 21.7
2014-Oct-20 17:41 207 22.2
2014-Oct-20 17:31 270 22.2
2014-Oct-20 17:21 292 22.2
2014-Oct-20 17:11 249 22.2
2014-Oct-20 17:01 116 22.8
2014-Oct-20 16:51 243 22.8
2014-Oct-20 16:41 093 23.3
2014-Oct-20 16:31 093 23.3
2014-Oct-20 16:21 005 23.9
2014-Oct-20 16:11 024 24.4
2014-Oct-20 16:01 024 25.0
2014-Oct-20 15:51 092 25.6
2014-Oct-20 15:41 111 0 gusting 2 26.7
2014-Oct-20 15:31 112 0 gusting 2 27.2
2014-Oct-20 15:21 115 0 gusting 4 27.8
2014-Oct-20 15:11 110 0 gusting 4 27.8
2014-Oct-20 15:01 133 0 gusting 4 28.3
2014-Oct-20 14:51 092 1 gusting 5 28.3
2014-Oct-20 14:41 093 1 gusting 4 28.3
2014-Oct-20 14:31 135 0 gusting 4 28.9
2014-Oct-20 14:21 091 0 gusting 5 28.9
2014-Oct-20 14:11 112 0 gusting 5 28.3
2014-Oct-20 14:01 090 1 gusting 4 28.3
2014-Oct-20 13:51 114 1 gusting 6 28.3
2014-Oct-20 13:41 068 1 gusting 6 28.9
2014-Oct-20 13:31 089 1 gusting 4 28.3
2014-Oct-20 13:21 120 2 gusting 5 28.9
2014-Oct-20 13:11 115 1 gusting 5 28.9
2014-Oct-20 13:01 112 1 gusting 5 28.9
2014-Oct-20 12:51 223 1 gusting 2 28.9
2014-Oct-20 12:41 114 1 gusting 6 28.9
2014-Oct-20 12:31 112 1 gusting 5 28.9
2014-Oct-20 12:21 027 1 gusting 6 28.9
2014-Oct-20 12:11 068 1 gusting 4 28.9
2014-Oct-20 12:01 112 1 gusting 4 28.3
2014-Oct-20 11:51 131 1 gusting 6 28.3
2014-Oct-20 11:41 175 0 gusting 4 28.3
2014-Oct-20 11:31 090 1 gusting 4 28.3
2014-Oct-20 11:21 131 1 gusting 5 28.3
2014-Oct-20 11:11 070 1 gusting 5 28.3
2014-Oct-20 11:01 092 1 gusting 6 28.3
2014-Oct-20 10:51 131 1 gusting 5 28.3
2014-Oct-20 10:41 111 0 gusting 5 28.3
2014-Oct-20 10:31 176 0 gusting 4 28.3
2014-Oct-20 10:21 090 0 gusting 1 28.3
2014-Oct-20 10:11 068 27.8
2014-Oct-20 10:01 131 27.8
2014-Oct-20 09:51 042 27.8
2014-Oct-20 09:41 199 27.2
2014-Oct-20 09:31 087 26.7
2014-Oct-20 09:21 089 26.1
2014-Oct-20 09:11 070 25.6
2014-Oct-20 09:01 072 24.4
2014-Oct-20 08:51 23.9
2014-Oct-20 08:41 004 0 gusting 1 23.3
2014-Oct-20 08:31 065 0 gusting 1 22.8
2014-Oct-20 08:21 022 0 gusting 2 21.7
2014-Oct-20 08:11 21.1
2014-Oct-20 08:01 047 0 gusting 2 20.6
2014-Oct-20 07:51 022 1 gusting 2 20.0
2014-Oct-20 07:41 043 0 gusting 2 19.4
2014-Oct-20 07:31 065 0 gusting 1 18.9
2014-Oct-20 07:21 024 1 gusting 4 18.3
2014-Oct-20 07:11 043 0 gusting 4 18.3
2014-Oct-20 07:01 002 1 gusting 2 18.3
2014-Oct-20 06:51 018 0 gusting 2 18.3
2014-Oct-20 06:41 022 0 gusting 1 17.8
2014-Oct-20 06:31 340 17.8
2014-Oct-20 06:21 130 17.8
2014-Oct-20 06:11 001 0 gusting 1 17.8
2014-Oct-20 06:01 348 17.8
2014-Oct-20 05:51 036 17.8
2014-Oct-20 05:41 358 0 gusting 4 17.8
2014-Oct-20 05:31 017 0 gusting 2 17.8
2014-Oct-20 05:21 17.8
2014-Oct-20 05:11 043 0 gusting 1 17.8
2014-Oct-20 05:01 309 17.8
2014-Oct-20 04:51 324 17.2
2014-Oct-20 04:41 356 17.8
2014-Oct-20 04:31 328 18.3
2014-Oct-20 04:21 333 17.8
2014-Oct-20 04:11 18.3
2014-Oct-20 04:01 342 0 gusting 2 18.3
2014-Oct-20 03:51 307 1 gusting 5 18.3
2014-Oct-20 03:41 007 1 gusting 6 18.3
2014-Oct-20 03:31 303 0 gusting 6 17.8
2014-Oct-20 03:21 18.3
2014-Oct-20 03:11 016 1 gusting 5 17.8
2014-Oct-20 03:01 343 17.8
2014-Oct-20 02:51 275 0 gusting 2 17.8
2014-Oct-20 02:41 060 0 gusting 5 17.8
2014-Oct-20 02:31 015 17.8
2014-Oct-20 02:21 022 17.8
2014-Oct-20 02:11 230 17.8
2014-Oct-20 02:01 270 17.8
2014-Oct-20 01:51 17.8
2014-Oct-20 01:41 010 17.8
2014-Oct-20 01:31 022 17.8
2014-Oct-20 01:21 281 17.8
2014-Oct-20 01:11 292 17.8
2014-Oct-20 01:01 081 17.8
2014-Oct-20 00:51 287 17.8
2014-Oct-20 00:41 353 18.3
2014-Oct-20 00:31 305 18.3
2014-Oct-20 00:21 029 0 gusting 1 18.3
2014-Oct-20 00:11 035 18.3
2014-Oct-20 00:01 287 18.3